OpenBCM V1.07b12 (Linux)

Packet Radio Mailbox

DB0FHN

[JN59NK Nuernberg]

 Login: GUEST





  
I0OJJ  > KEPS     25.02.25 06:12l 339 Lines 16061 Bytes #999 (0) @ AMSAT
BID : ORB25056.1
Read: DJ6UX GUEST
Subj: 2Line Orbital Elements 25056.AMSAT
Path: DB0FHN<DB0FFL<OE5XBL<OE6XPE<DB0ERF<DK0WUE<PD0LPM<IR0AAB<I0OJJ<I0OJJ
Sent: 250225/0345z @:I0OJJ.ITA.EU [Rome] obcm1.08-6-g5b69

>From i0ojj%i0ojj.ita.eu@i0ojj.ampr.org Tue Feb 25 04:45:06 2025
Received: from i0ojj.ampr.org by i0ojj.ampr.org (JNOS2.0p.6) with SMTP
	id AA17024279 ; Tue, 25 Feb 2025 04:45:06 +0100
Message-Id: <ORB25056.1@i0ojj.bbs>
>From: i0ojj@i0ojj.ita.eu
X-JNOS-User-Port: Telnet   (i0ojj @ 44.134.109.10)  -> Sending message

From: I0OJJ @ I0OJJ.ITA.EU (Gustavo)
To:   KEPS @ AMSAT
X-Info: This message was generated automatically


QST de W1STR

AMSAT Orbital Elements for Amateur Satellites in TLE Format
>From Orbital Analysis Office
New England Sci-Tech STEM Education Center
Natick, MA February 25, 2025
To all radio amateurs


These element sets describe the orbits of various satellites 
in use by the amateur radio community. For details see:
www.amsat.org/keplerian-elements-formats/

A daily update of element sets is available at:
www.amsat.org/tle/daily-bulletin.txt
or without bulletin text:
www.amsat.org/tle/dailytle.txt


AO-07
1 07530U 74089B   25055.64212848 -.00000013  00000-0  20969-3 0  9999
2 07530 101.9943  58.7857 0012016 323.5185 147.3862 12.53686523300679
UO-11
1 14781U 84021B   25055.50910005  .00004221  00000-0  45680-3 0  9998
2 14781  97.7405  24.0779 0006991 336.3141  23.7754 14.88765255186004
AO-27
1 22825U 93061C   25055.59942540  .00000306  00000-0  13422-3 0  9997
2 22825  98.7520 116.5669 0009328  64.4757 295.7389 14.30735681638706
FO-29
1 24278U 96046B   25055.61488108  .00000015  00000-0  54600-4 0  9996
2 24278  98.5864 323.2707 0348916 254.4677 101.7692 13.53238381408572
NOAA-15
1 25338U 98030A   25055.84191182  .00000503  00000-0  22502-3 0  9994
2 25338  98.5472  83.4392 0009306 309.5943  50.4415 14.26892787393466
GO-32
1 25397U 98043D   25055.52806726  .00000297  00000-0  14858-3 0  9990
2 25397  98.9590  32.5193 0002008 123.4542 236.6828 14.24259887383337
ISS
1 25544U 98067A   25055.73635937  .00029091  00000-0  52662-3 0  9995
2 25544  51.6356 143.9899 0006112 310.6589  49.3868 15.49395806497720
NO-44
1 26931U 01043C   25055.36948200  .00000643  00000-0  27217-3 0  9993
2 26931  67.0510  39.8439 0005920 265.0907  94.9519 14.31630509222042
SO-50
1 27607U 02058C   25055.57773953  .00003435  00000-0  45307-3 0  9997
2 27607  64.5548 164.5249 0043915   0.1793 359.9320 14.81017185193672
CO-55
1 27844U 03031E   25055.48886331  .00000933  00000-0  42653-3 0  9998
2 27844  98.6794  65.1113 0010582 128.7262 231.4865 14.23837445123681
CO-57
1 27848U 03031J   25054.96702351  .00000719  00000-0  33731-3 0  9992
2 27848  98.6823  64.6803 0010215 145.6103 214.5738 14.23193995123342
RS-22
1 27939U 03042A   25055.80373818  .00003220  00000-0  52296-3 0  9998
2 27939  98.3152 222.8126 0011267 346.6133 124.9181 14.71822251145410
NOAA-18
1 28654U 05018A   25055.79371926  .00000436  00000-0  25488-3 0  9993
2 28654  98.8495 136.4304 0015030  69.4694 290.8090 14.13524752 18942
CO-58
1 28895U 05043F   25055.33605134  .00004883  00000-0  81677-3 0  9991
2 28895  98.2299 198.5234 0013938 280.6830  79.2806 14.70244946 31474
CO-65
1 32785U 08021C   25055.79191469  .00013455  00000-0  10172-2 0  9990
2 32785  97.7734  26.3845 0009750 198.7197 161.3670 15.02443218913406
AAUSAT2
1 32788U 08021F   25055.55473837  .00138360  00000-0  24074-2 0  9998
2 32788  97.6059  47.7766 0005490  75.7643 284.4217 15.50266253916923
CO-66
1 32791U 08021J   25055.75096997  .00026653  00000-0  14511-2 0  9998
2 32791  97.7190  33.8107 0005670 140.5577 219.6068 15.14392581914685
RS-30
1 32953U 08025A   25055.85937219  .00000059  00000-0  35667-3 0  9992
2 32953  82.5015 292.3284 0018704 275.2153  84.6792 12.43159336760512
NOAA-19
1 33591U 09005A   25055.85382991  .00000440  00000-0  25859-3 0  9997
2 33591  99.0113 119.9175 0012846 301.1822  58.8090 14.13293778827313
SRMSAT
1 37841U 11058D   25055.69956984  .00000689  00000-0  23084-3 0  9994
2 37841  19.9723  69.1964 0011705 352.5004 166.0639 14.11369367690494
ZACUBE-1
1 39417U 13066B   25055.83558532  .00013696  00000-0  12358-2 0  9992
2 39417  97.7678  13.6056 0047439  44.0491 316.4493 14.94770681609259
Delfi-N3xt
1 39428U 13066N   25055.34140103  .00020514  00000-0  21973-2 0  9991
2 39428  97.8371 334.3373 0088625 348.0822  11.8295 14.85815754603435
GOMX-1
1 39430U 13066Q   25055.74345780  .00005119  00000-0  80741-3 0  9999
2 39430  97.6990 280.7944 0134268 167.2533 193.2124 14.66894881600032
LO-74
1 39440U 13066AA  25055.39334091  .00009345  00000-0  97776-3 0  9995
2 39440  97.8391   0.8608 0064472 165.0696 195.2444 14.88296544605783
AO-73
1 39444U 13066AE  25055.43210659  .00019520  00000-0  15604-2 0  9992
2 39444  97.7511  17.2989 0042750  23.3232 336.9918 14.99534764607818
DTUSAT-2
1 40030U 14033W   25055.72682708  .00017282  00000-0  11978-2 0  9993
2 40030  98.0426  22.7308 0011487  60.7683 299.4690 15.05646666581111
EO-80
1 40032U 14033Y   25055.88569987  .00018566  00000-0  12829-2 0  9997
2 40032  98.0325  22.6940 0009067  12.2252 347.9191 15.05763160581122
XW-2C
1 40906U 15049H   25047.62605869  .06460715  25777-5  82494-3 0  9990
2 40906  97.4284  83.7622 0006300 238.5188 121.5494 16.35922890522636
LILACSAT-2
1 40908U 15049K   25055.81267260  .00022158  00000-0  64781-3 0  9996
2 40908  97.5159  73.8319 0010557 164.7875 195.3687 15.35240362522139
IO-86
1 40931U 15052B   25038.81889873  .00001817  00000-0  15548-3 0  9993
2 40931   6.0001 108.1159 0012838 187.7041 172.2889 14.78568669506492
Horyu-4
1 41340U 16012D   25055.51719001  .00034898  00000-0  11526-2 0  9992
2 41340  31.0000 115.2529 0006593  62.1362 297.9949 15.30173249496649
Lapan A3
1 41603U 16040E   25055.81221349  .00007649  00000-0  27680-3 0  9994
2 41603  97.1396  64.5974 0009296 285.7302  74.2913 15.28643809481778
CAS-2T
1 41847U 16066G   25055.44562669  .00004407  00000-0  63339-3 0  9994
2 41847  98.4306 130.8130 0348722 136.3537 226.5806 14.43006841435851
CAS-4B
1 42759U 17034B   25055.84498292  .00073791  00000-0  13344-2 0  9999
2 42759  43.0092 219.4138 0018324 278.7571  81.1213 15.48588185426281
CAS-4A
1 42761U 17034D   25055.87161281  .00074393  00000-0  13193-2 0  9991
2 42761  43.0127 217.1679 0019518 284.8673  75.0025 15.49113745426308
TechnoSat
1 42829U 17042E   25055.46271830  .00008026  00000-0  64104-3 0  9991
2 42829  97.3884 229.2472 0011859 283.4920  76.4983 15.00452013414957
AO-91
1 43017U 17073E   25055.44175237  .00016728  00000-0  89664-3 0  9993
2 43017  97.5485 288.9438 0181475 163.7115 197.0051 15.01922697393412
S-Net D
1 43186U 18014G   25055.20768726  .00012086  00000-0  74693-3 0  9990
2 43186  97.5725 319.2591 0008153 218.8949 141.1694 15.09981291386465
S-Net B
1 43187U 18014H   25055.60943979  .00011896  00000-0  73529-3 0  9995
2 43187  97.5731 319.6225 0009030 212.5723 147.4950 15.09973916386523
S-Net A
1 43188U 18014J   25055.27467374  .00012153  00000-0  75081-3 0  9991
2 43188  97.5739 319.4286 0008863 214.5122 145.5533 15.09986746386470
S-Net C
1 43189U 18014K   25055.61159883  .00011881  00000-0  73418-3 0  9992
2 43189  97.5755 319.7579 0010672 206.8761 153.1916 15.09970291385074
Ten-Koh
1 43677U 18084G   25055.54338149  .00007924  00000-0  64935-3 0  9994
2 43677  98.0872 223.6226 0009925 255.3911 104.6211 14.99526534344494
PO-101
1 43678U 18084H   25055.84825703  .00005906  00000-0  51289-3 0  9991
2 43678  98.0940 228.0735 0007746 277.7429  82.2912 14.97402753344703
QO-100
1 43700U 18090A   25055.79385924  .00000147  00000-0  00000+0 0  9997
2 43700   0.0108 118.8628 0001219 247.5967 100.0128  1.00270909 23131
MinXSS-2
1 43758U 18099A   25055.43906726  .00029726  00000-0  13496-2 0  9999
2 43758  97.5173 121.4166 0013655 162.3577 197.8135 15.20657056340966
AO-95
1 43770U 18099N   25055.09891128  .00016884  00000-0  92917-3 0  9991
2 43770  97.5087 114.4822 0010999 212.7315 147.3236 15.14067342340578
RANGE-A
1 43773U 18099R   25055.58757649  .00009289  00000-0  61633-3 0  9999
2 43773  97.4657 107.0553 0011695 184.3624 175.7504 15.07403888340397
MOVE-II
1 43780U 18099Y   25055.45118724  .00101224  00000-0  22257-2 0  9998
2 43780  97.4822 125.9296 0004315 173.9642 186.1658 15.43607201341434
SNUSat 2
1 43782U 18099AA  25055.61647496  .00015608  00000-0  91065-3 0  9995
2 43782  97.4774 112.5600 0013517 151.9981 208.1980 15.11957125340620
SnugLite
1 43784U 18099AC  25055.67944107  .00018238  00000-0  99529-3 0  9997
2 43784  97.4587 112.0069 0004553 146.4058 213.7463 15.14391882340748
ITASat 1
1 43786U 18099AE  25055.58365061  .00012970  00000-0  78493-3 0  9999
2 43786  97.4731 112.3196 0014764 204.3685 155.6849 15.10660452340593
EAGLET 1
1 43790U 18099AJ  25055.87097401  .00010335  00000-0  68302-3 0  9997
2 43790  97.4932 112.8540 0012537 181.4459 178.6735 15.07513966340287
ESEO
1 43792U 18099AL  25055.69793238  .00004616  00000-0  35726-3 0  9999
2 43792  97.4588 107.2939 0011206 153.0498 207.1312 15.01880280340072
CSIM
1 43793U 18099AM  25055.76078538  .00107251  00000-0  23337-2 0  9990
2 43793  97.4994 128.2520 0006745 149.5923 210.5718 15.43880930341323
JO-97
1 43803U 18099AX  25055.72445031  .00021888  00000-0  11075-2 0  9991
2 43803  97.4827 115.9174 0008879 146.8833 213.2958 15.17003557340854
Suomi 100
1 43804U 18099AY  25055.65443142  .00019184  00000-0  10225-2 0  9997
2 43804  97.4899 115.3995 0014030 149.7061 210.4985 15.15143944340795
ISAT
1 43879U 18111D   25055.20038655  .00033407  00000-0  13875-2 0  9992
2 43879  97.6034 327.6801 0009103 192.8333 167.2673 15.23714528337611
UWE-4
1 43880U 18111E   25055.60119026  .00027568  00000-0  12413-2 0  9998
2 43880  97.5971 327.2051 0011924 208.4101 151.6486 15.20978599337645
Sparrow
1 43881U 18111F   25055.25710914  .00035844  00000-0  14487-2 0  9992
2 43881  97.6151 330.2476 0005493 238.0131 122.0572 15.24640751337703
